Time,TemperatureF,DewpointF,PressureIn,WindDirection,WindDirectionDegrees,WindSpeedMPH,WindSpeedGustMPH,Humidity,HourlyPrecipIn,Conditions,Clouds,dailyrainin,SolarRadiationWatts/m^2,SoftwareType,DateUTC
2013-11-17 00:03:00,25.0,-5.0,-100.00,NW,315,45.0,54.0,27,0.00,,,0.00,0.800000,,2013-11-17 09:03:00,
2013-11-17 00:11:00,25.0,-5.0,-100.00,NW,315,45.0,54.0,27,0.00,,,0.00,0.800000,,2013-11-17 09:11:00,
2013-11-17 00:22:00,25.0,-5.0,-100.00,NW,315,45.0,54.0,27,0.00,,,0.00,0.800000,,2013-11-17 09:22:00,
2013-11-17 00:54:00,22.0,-2.0,-100.00,NW,309,59.0,78.0,34,0.00,,,0.00,0.800000,,2013-11-17 09:54:00,
2013-11-17 01:03:00,22.0,-2.0,-100.00,NW,309,59.0,78.0,34,0.00,,,0.00,0.800000,,2013-11-17 10:03:00,
2013-11-17 01:13:00,22.0,-2.0,-100.00,NW,309,59.0,78.0,34,0.00,,,0.00,0.800000,,2013-11-17 10:13:00,
2013-11-17 01:23:00,22.0,-2.0,-100.00,NW,309,59.0,78.0,34,0.00,,,0.00,0.800000,,2013-11-17 10:23:00,
2013-11-17 01:53:00,23.0,-3.0,-100.00,NW,316,47.0,91.0,31,0.00,,,0.00,0.800000,,2013-11-17 10:53:00,
2013-11-17 02:02:00,23.0,-3.0,-100.00,NW,316,47.0,91.0,31,0.00,,,0.00,0.800000,,2013-11-17 11:02:00,
2013-11-17 02:12:00,23.0,-3.0,-100.00,NW,316,47.0,91.0,31,0.00,,,0.00,0.800000,,2013-11-17 11:12:00,
2013-11-17 02:22:00,23.0,-3.0,-100.00,NW,316,47.0,91.0,31,0.00,,,0.00,0.800000,,2013-11-17 11:22:00,
2013-11-17 02:52:00,23.0,-4.0,-100.00,NNW,331,38.0,78.0,29,0.00,,,0.00,0.800000,,2013-11-17 11:52:00,
2013-11-17 03:02:00,23.0,-4.0,-100.00,NNW,331,38.0,78.0,29,0.00,,,0.00,0.800000,,2013-11-17 12:02:00,
2013-11-17 03:11:00,23.0,-4.0,-100.00,NNW,331,38.0,78.0,29,0.00,,,0.00,0.800000,,2013-11-17 12:11:00,
2013-11-17 03:21:00,23.0,-4.0,-100.00,NNW,331,38.0,78.0,29,0.00,,,0.00,0.800000,,2013-11-17 12:21:00,
2013-11-17 03:52:00,22.0,-4.0,-100.00,NW,308,57.0,77.0,31,0.00,,,0.00,0.800000,,2013-11-17 12:52:00,
2013-11-17 04:01:00,22.0,-4.0,-100.00,NW,308,57.0,77.0,31,0.00,,,0.00,0.800000,,2013-11-17 13:01:00,
2013-11-17 04:11:00,22.0,-4.0,-100.00,NW,308,57.0,77.0,31,0.00,,,0.00,0.800000,,2013-11-17 13:11:00,
2013-11-17 04:21:00,22.0,-4.0,-100.00,NW,308,57.0,77.0,31,0.00,,,0.00,0.800000,,2013-11-17 13:21:00,
2013-11-17 04:52:00,21.0,-5.0,-100.00,NW,306,44.0,79.0,31,0.00,,,0.00,0.800000,,2013-11-17 13:52:00,
2013-11-17 05:02:00,21.0,-5.0,-100.00,NW,306,44.0,79.0,31,0.00,,,0.00,0.800000,,2013-11-17 14:02:00,
2013-11-17 05:11:00,21.0,-5.0,-100.00,NW,306,44.0,79.0,31,0.00,,,0.00,0.800000,,2013-11-17 14:11:00,
2013-11-17 05:21:00,21.0,-5.0,-100.00,NW,306,44.0,79.0,31,0.00,,,0.00,0.800000,,2013-11-17 14:21:00,
2013-11-17 05:52:00,22.0,-6.0,-100.00,NW,308,34.0,73.0,29,0.00,,,0.00,0.800000,,2013-11-17 14:52:00,
2013-11-17 06:02:00,22.0,-6.0,-100.00,NW,308,34.0,73.0,29,0.00,,,0.00,0.800000,,2013-11-17 15:02:00,
2013-11-17 06:11:00,22.0,-6.0,-100.00,NW,308,34.0,73.0,29,0.00,,,0.00,0.800000,,2013-11-17 15:11:00,
2013-11-17 06:22:00,22.0,-6.0,-100.00,NW,308,34.0,73.0,29,0.00,,,0.00,0.800000,,2013-11-17 15:22:00,
2013-11-17 06:54:00,21.0,-4.0,-100.00,NW,308,39.0,57.0,31,0.00,,,0.00,0.800000,,2013-11-17 15:54:00,
2013-11-17 07:03:00,21.0,-4.0,-100.00,NW,308,39.0,57.0,31,0.00,,,0.00,0.800000,,2013-11-17 16:03:00,
2013-11-17 07:12:00,21.0,-4.0,-100.00,NW,308,39.0,57.0,31,0.00,,,0.00,0.800000,,2013-11-17 16:12:00,
2013-11-17 07:23:00,21.0,-4.0,-100.00,NW,308,39.0,57.0,31,0.00,,,0.00,0.800000,,2013-11-17 16:23:00,
2013-11-17 07:53:00,21.0,-5.0,-100.00,NW,304,50.0,59.0,31,0.00,,,0.00,0.800000,,2013-11-17 16:53:00,
2013-11-17 08:03:00,21.0,-5.0,-100.00,NW,304,50.0,59.0,31,0.00,,,0.00,0.800000,,2013-11-17 17:03:00,
2013-11-17 08:12:00,21.0,-5.0,-100.00,NW,304,50.0,59.0,31,0.00,,,0.00,0.800000,,2013-11-17 17:12:00,
2013-11-17 08:22:00,21.0,-5.0,-100.00,NW,304,50.0,59.0,31,0.00,,,0.00,0.800000,,2013-11-17 17:22:00,
2013-11-17 08:52:00,22.0,-8.0,-100.00,NW,305,57.0,77.0,26,0.00,,,0.00,0.800000,,2013-11-17 17:52:00,
2013-11-17 09:03:00,22.0,-8.0,-100.00,NW,305,57.0,77.0,26,0.00,,,0.00,0.800000,,2013-11-17 18:03:00,
2013-11-17 09:12:00,22.0,-8.0,-100.00,NW,305,57.0,77.0,26,0.00,,,0.00,0.800000,,2013-11-17 18:12:00,
2013-11-17 09:23:00,22.0,-8.0,-100.00,NW,305,57.0,77.0,26,0.00,,,0.00,0.800000,,2013-11-17 18:23:00,
2013-11-17 10:12:00,22.0,-9.0,-100.00,NW,308,49.0,82.0,24,0.00,,,0.00,5.500000,,2013-11-17 19:12:00,
2013-11-17 11:12:00,23.0,-11.0,-100.00,NW,305,51.0,70.0,21,0.00,,,0.00,62.400002,,2013-11-17 20:12:00,
2013-11-17 12:12:00,24.0,-11.0,-100.00,NW,304,48.0,69.0,21,0.00,,,0.00,150.100006,,2013-11-17 21:12:00,
2013-11-17 13:13:00,22.0,-9.0,-100.00,NW,312,53.0,65.0,24,0.00,,,0.00,189.199997,,2013-11-17 22:13:00,
2013-11-17 13:24:00,22.0,-9.0,-100.00,NW,312,53.0,65.0,24,0.00,,,0.00,189.199997,,2013-11-17 22:24:00,
2013-11-17 13:53:00,21.0,-9.0,-100.00,NW,304,54.0,76.0,25,0.00,,,0.00,190.199997,,2013-11-17 22:53:00,
2013-11-17 14:03:00,21.0,-9.0,-100.00,NW,304,54.0,76.0,25,0.00,,,0.00,190.199997,,2013-11-17 23:03:00,
2013-11-17 14:12:00,21.0,-9.0,-100.00,NW,304,54.0,76.0,25,0.00,,,0.00,190.199997,,2013-11-17 23:12:00,
2013-11-17 14:23:00,21.0,-9.0,-100.00,NW,304,54.0,76.0,25,0.00,,,0.00,190.199997,,2013-11-17 23:23:00,
2013-11-17 15:11:00,22.0,-10.0,-100.00,NW,324,45.0,82.0,23,0.00,,,0.00,162.000000,,2013-11-18 00:11:00,
2013-11-17 17:11:00,21.0,-10.0,-100.00,NNW,334,43.0,66.0,24,0.00,,,0.00,12.200000,,2013-11-18 02:11:00,
2013-11-17 18:11:00,20.0,-10.0,-100.00,NW,306,60.0,77.0,26,0.00,,,0.00,1.900000,,2013-11-18 03:11:00,
2013-11-17 19:12:00,19.0,-10.0,-100.00,NW,317,47.0,76.0,26,0.00,,,0.00,0.800000,,2013-11-18 04:12:00,
2013-11-17 19:52:00,20.0,-9.0,-100.00,NW,318,47.0,67.0,27,0.00,,,0.00,0.800000,,2013-11-18 04:52:00,
2013-11-17 20:02:00,20.0,-9.0,-100.00,NW,318,47.0,67.0,27,0.00,,,0.00,0.800000,,2013-11-18 05:02:00,
2013-11-17 20:12:00,20.0,-9.0,-100.00,NW,318,47.0,67.0,27,0.00,,,0.00,0.800000,,2013-11-18 05:12:00,
2013-11-17 20:22:00,20.0,-9.0,-100.00,NW,318,47.0,67.0,27,0.00,,,0.00,0.800000,,2013-11-18 05:22:00,
2013-11-17 21:12:00,21.0,-10.0,-100.00,NW,326,36.0,69.0,24,0.00,,,0.00,0.800000,,2013-11-18 06:12:00,
2013-11-17 23:11:00,20.0,-12.0,-100.00,NW,314,47.0,62.0,23,0.00,,,0.00,0.800000,,2013-11-18 08:11:00,